TimeCST,TemperatureF,Dew PointF,Humidity,Sea Level PressureIn,VisibilityMPH,Wind Direction,Wind SpeedMPH,Gust SpeedMPH,PrecipitationIn,Events,Conditions,WindDirDegrees,DateUTC
12:53 AM,14.0,1.0,56,30.32,10.0,South,9.2,-,N/A,,Overcast,170,2014-03-04 06:53:00
1:53 AM,14.0,1.0,56,30.29,10.0,South,11.5,-,N/A,,Overcast,180,2014-03-04 07:53:00
2:53 AM,12.9,1.0,59,30.27,10.0,SSE,9.2,-,N/A,,Mostly Cloudy,160,2014-03-04 08:53:00
3:53 AM,10.9,-0.0,61,30.25,10.0,SSE,8.1,-,N/A,,Clear,160,2014-03-04 09:53:00
4:53 AM,10.0,1.0,67,30.25,10.0,SSE,9.2,-,N/A,,Clear,160,2014-03-04 10:53:00
5:53 AM,9.0,1.0,70,30.24,10.0,SSE,5.8,-,N/A,,Clear,160,2014-03-04 11:53:00
6:53 AM,9.0,1.0,70,30.22,10.0,SSE,6.9,-,N/A,,Clear,160,2014-03-04 12:53:00
7:53 AM,12.0,3.9,70,30.22,10.0,SSE,10.4,-,N/A,,Clear,160,2014-03-04 13:53:00
8:53 AM,15.1,5.0,64,30.22,10.0,South,11.5,-,N/A,,Clear,180,2014-03-04 14:53:00
9:53 AM,19.0,7.0,59,30.19,10.0,South,6.9,-,N/A,,Clear,170,2014-03-04 15:53:00
10:53 AM,21.9,6.1,51,30.19,10.0,South,10.4,-,N/A,,Clear,180,2014-03-04 16:53:00
11:53 AM,25.0,7.0,46,30.19,10.0,South,9.2,-,N/A,,Clear,190,2014-03-04 17:53:00
12:53 PM,27.0,3.9,37,30.16,10.0,Calm,Calm,-,N/A,,Clear,0,2014-03-04 18:53:00
1:53 PM,30.0,5.0,35,30.14,10.0,South,4.6,-,N/A,,Clear,180,2014-03-04 19:53:00
2:53 PM,30.9,8.1,38,30.12,10.0,SSE,6.9,-,N/A,,Clear,160,2014-03-04 20:53:00
3:53 PM,30.0,10.0,43,30.11,10.0,East,10.4,-,N/A,,Clear,100,2014-03-04 21:53:00
4:53 PM,32.0,10.9,42,30.09,10.0,SSE,11.5,-,N/A,,Clear,150,2014-03-04 22:53:00
5:53 PM,30.0,12.9,49,30.13,10.0,SE,5.8,-,N/A,,Clear,140,2014-03-04 23:53:00
6:53 PM,28.9,16.0,58,30.13,10.0,East,10.4,-,N/A,,Clear,100,2014-03-05 00:53:00
7:53 PM,27.0,17.1,66,30.12,10.0,East,10.4,-,N/A,,Overcast,90,2014-03-05 01:53:00
8:53 PM,25.0,15.1,66,30.14,10.0,East,9.2,-,N/A,,Clear,80,2014-03-05 02:53:00
9:53 PM,24.1,15.1,69,30.15,10.0,East,10.4,-,N/A,,Partly Cloudy,80,2014-03-05 03:53:00
10:53 PM,24.1,15.1,69,30.16,10.0,East,9.2,-,N/A,,Overcast,80,2014-03-05 04:53:00
11:53 PM,24.1,15.1,69,30.17,10.0,East,12.7,-,N/A,,Overcast,80,2014-03-05 05:53:00